Year,Month,Day,Hour,Minute,Value (Times are PST for windspeed in km/hr)
2011,07,09,00,00,1.50
2011,07,09,00,01,1.00
2011,07,09,00,02,0.80
2011,07,09,00,03,0.60
2011,07,09,00,04,1.30
2011,07,09,00,05,2.40
2011,07,09,00,06,2.80
2011,07,09,00,07,3.20
2011,07,09,00,08,2.40
2011,07,09,00,09,1.80
2011,07,09,00,10,0.50
2011,07,09,00,11,1.60
2011,07,09,00,12,2.80
2011,07,09,00,13,1.40
2011,07,09,00,14,0.10
2011,07,09,00,15,0.20
2011,07,09,00,16,1.20
2011,07,09,00,17,1.70
2011,07,09,00,18,0.50
2011,07,09,00,19,0.20
2011,07,09,00,20,1.70
2011,07,09,00,21,1.60
2011,07,09,00,22,0.90
2011,07,09,00,23,1.10
2011,07,09,00,24,2.80
2011,07,09,00,25,2.20
2011,07,09,00,26,1.90
2011,07,09,00,27,2.20
2011,07,09,00,28,1.80
2011,07,09,00,29,1.40
2011,07,09,00,30,0.90
2011,07,09,00,31,2.30
2011,07,09,00,32,2.40
2011,07,09,00,33,1.90
2011,07,09,00,34,1.90
2011,07,09,00,35,2.20
2011,07,09,00,36,1.60
2011,07,09,00,37,2.80
2011,07,09,00,38,1.50
2011,07,09,00,39,1.50
2011,07,09,00,40,2.10
2011,07,09,00,41,3.10
2011,07,09,00,42,2.60
2011,07,09,00,43,2.10
2011,07,09,00,44,1.20
2011,07,09,00,45,2.30
2011,07,09,00,46,0.60
2011,07,09,00,47,0.30
2011,07,09,00,48,0.60
2011,07,09,00,49,1.40
2011,07,09,00,50,1.20
2011,07,09,00,51,1.20
2011,07,09,00,52,3.30
2011,07,09,00,53,1.20
2011,07,09,00,54,1.80
2011,07,09,00,55,3.40
2011,07,09,00,56,4.00
2011,07,09,00,57,2.90
2011,07,09,00,58,3.40
2011,07,09,00,59,4.40
2011,07,09,01,00,5.10
2011,07,09,01,01,2.80
2011,07,09,01,02,5.40
2011,07,09,01,03,6.00
2011,07,09,01,04,4.20
2011,07,09,01,05,2.40
2011,07,09,01,06,2.60
2011,07,09,01,07,4.10
2011,07,09,01,08,3.90
2011,07,09,01,09,6.00
2011,07,09,01,10,3.90
2011,07,09,01,11,2.10
2011,07,09,01,12,1.20
2011,07,09,01,13,2.90
2011,07,09,01,14,0.50
2011,07,09,01,15,0.30
2011,07,09,01,16,0.10
2011,07,09,01,17,0.10
2011,07,09,01,18,0.00
2011,07,09,01,19,0.50
2011,07,09,01,20,0.60
2011,07,09,01,21,2.20
2011,07,09,01,22,2.40
2011,07,09,01,23,1.50
2011,07,09,01,24,1.00
2011,07,09,01,25,0.80
2011,07,09,01,26,2.10
2011,07,09,01,27,1.20
2011,07,09,01,28,2.40
2011,07,09,01,29,0.50
2011,07,09,01,30,0.10
2011,07,09,01,31,0.00
2011,07,09,01,32,0.30
2011,07,09,01,33,0.80
2011,07,09,01,34,0.10
2011,07,09,01,35,0.50
2011,07,09,01,36,1.80
2011,07,09,01,37,2.40
2011,07,09,01,38,2.30
2011,07,09,01,39,2.20
2011,07,09,01,40,1.80
2011,07,09,01,41,3.20
2011,07,09,01,42,2.20
2011,07,09,01,43,2.60
2011,07,09,01,44,0.90
2011,07,09,01,45,0.90
2011,07,09,01,46,0.80
2011,07,09,01,47,1.90
2011,07,09,01,48,3.10
2011,07,09,01,49,1.90
2011,07,09,01,50,1.20
2011,07,09,01,51,1.60
2011,07,09,01,52,0.40
2011,07,09,01,53,0.30
2011,07,09,01,54,0.00
2011,07,09,01,55,0.00
2011,07,09,01,56,0.00
2011,07,09,01,57,0.00
2011,07,09,01,58,0.00
2011,07,09,01,59,0.00
2011,07,09,02,00,0.00
2011,07,09,02,01,0.00
2011,07,09,02,02,0.00
2011,07,09,02,03,0.00
2011,07,09,02,04,0.00
2011,07,09,02,05,0.00
2011,07,09,02,06,0.00
2011,07,09,02,07,0.00
2011,07,09,02,08,0.50
2011,07,09,02,09,0.10
2011,07,09,02,10,0.60
2011,07,09,02,11,0.00
2011,07,09,02,12,0.30
2011,07,09,02,13,1.00
2011,07,09,02,14,0.70
2011,07,09,02,15,0.20
2011,07,09,02,16,0.00
2011,07,09,02,17,0.20
2011,07,09,02,18,0.00
2011,07,09,02,19,0.20
2011,07,09,02,20,0.70
2011,07,09,02,21,1.50
2011,07,09,02,22,1.20
2011,07,09,02,23,2.10
2011,07,09,02,24,1.80
2011,07,09,02,25,2.70
2011,07,09,02,26,3.80
2011,07,09,02,27,3.10
2011,07,09,02,28,2.40
2011,07,09,02,29,2.60
2011,07,09,02,30,3.40
2011,07,09,02,31,3.50
2011,07,09,02,32,3.20
2011,07,09,02,33,2.60
2011,07,09,02,34,2.60
2011,07,09,02,35,1.90
2011,07,09,02,36,0.70
2011,07,09,02,37,0.10
2011,07,09,02,38,0.00
2011,07,09,02,39,1.60
2011,07,09,02,40,1.30
2011,07,09,02,41,1.50
2011,07,09,02,42,2.20
2011,07,09,02,43,2.30
2011,07,09,02,44,2.40
2011,07,09,02,45,3.40
2011,07,09,02,46,6.40
2011,07,09,02,47,7.20
2011,07,09,02,48,2.80
2011,07,09,02,49,1.90
2011,07,09,02,50,4.40
2011,07,09,02,51,3.50
2011,07,09,02,52,2.90
2011,07,09,02,53,2.60
2011,07,09,02,54,1.10
2011,07,09,02,55,0.70
2011,07,09,02,56,4.10
2011,07,09,02,57,2.10
2011,07,09,02,58,1.50
2011,07,09,02,59,1.60
2011,07,09,03,00,1.40
2011,07,09,03,01,1.70
2011,07,09,03,02,1.50
2011,07,09,03,03,0.60
2011,07,09,03,06,1.80
2011,07,09,03,07,2.60
2011,07,09,03,08,2.40
2011,07,09,03,09,2.30
2011,07,09,03,10,1.00
2011,07,09,03,11,1.50
2011,07,09,03,12,0.50
2011,07,09,03,13,0.40
2011,07,09,03,14,0.00
2011,07,09,03,15,0.00
2011,07,09,03,16,0.10
2011,07,09,03,17,0.00
2011,07,09,03,18,0.00
2011,07,09,03,19,0.00
2011,07,09,03,20,0.00
2011,07,09,03,21,0.10
2011,07,09,03,22,0.00
2011,07,09,03,23,0.00
2011,07,09,03,24,0.00
2011,07,09,03,25,0.00
2011,07,09,03,26,0.00
2011,07,09,03,27,0.00
2011,07,09,03,28,0.00
2011,07,09,03,29,0.00
2011,07,09,03,30,0.40
2011,07,09,03,31,1.50
2011,07,09,03,32,0.30
2011,07,09,03,33,0.20
2011,07,09,03,34,0.00
2011,07,09,03,35,0.20
2011,07,09,03,36,0.40
2011,07,09,03,37,0.00
2011,07,09,03,38,0.30
2011,07,09,03,39,0.30
2011,07,09,03,40,0.20
2011,07,09,03,41,1.00
2011,07,09,03,42,0.00
2011,07,09,03,43,0.00
2011,07,09,03,44,0.00
2011,07,09,03,45,0.70
2011,07,09,03,46,1.50
2011,07,09,03,47,0.10
2011,07,09,03,48,0.20
2011,07,09,03,49,0.30
2011,07,09,03,50,0.20
2011,07,09,03,51,1.20
2011,07,09,03,52,0.20
2011,07,09,03,53,0.10
2011,07,09,03,54,0.60
2011,07,09,03,55,1.10
2011,07,09,03,56,0.10
2011,07,09,03,57,0.40
2011,07,09,03,58,0.10
2011,07,09,03,59,0.20
2011,07,09,04,00,0.30
2011,07,09,04,01,0.10
2011,07,09,04,02,0.10
2011,07,09,04,03,1.10
2011,07,09,04,04,1.50
2011,07,09,04,05,1.60
2011,07,09,04,06,1.40
2011,07,09,04,07,1.60
2011,07,09,04,08,1.70
2011,07,09,04,09,1.30
2011,07,09,04,10,0.70
2011,07,09,04,11,0.10
2011,07,09,04,12,0.60
2011,07,09,04,13,0.50
2011,07,09,04,14,0.30
2011,07,09,04,15,0.30
2011,07,09,04,16,0.40
2011,07,09,04,17,0.10
2011,07,09,04,18,0.90
2011,07,09,04,19,1.00
2011,07,09,04,20,1.20
2011,07,09,04,21,0.80
2011,07,09,04,22,1.00
2011,07,09,04,23,0.90
2011,07,09,04,24,1.00
2011,07,09,04,25,0.70
2011,07,09,04,26,1.50
2011,07,09,04,27,0.70
2011,07,09,04,28,0.10
2011,07,09,04,29,0.00
2011,07,09,04,30,0.10
2011,07,09,04,31,1.50
2011,07,09,04,32,2.10
2011,07,09,04,33,0.70
2011,07,09,04,34,1.20
2011,07,09,04,35,1.00
2011,07,09,04,36,0.60
2011,07,09,04,37,0.30
2011,07,09,04,38,2.50
2011,07,09,04,39,2.00
2011,07,09,04,40,1.80
2011,07,09,04,41,0.50
2011,07,09,04,42,0.20
2011,07,09,04,43,0.00
2011,07,09,04,44,0.30
2011,07,09,04,45,0.20
2011,07,09,04,46,0.00
2011,07,09,04,47,0.00
2011,07,09,04,48,0.00
2011,07,09,04,49,0.00
2011,07,09,04,50,0.00
2011,07,09,04,51,0.00
2011,07,09,04,52,0.00
2011,07,09,04,53,0.00
2011,07,09,04,54,0.20
2011,07,09,04,55,0.00
2011,07,09,04,56,0.00
2011,07,09,04,57,0.30
2011,07,09,04,58,1.00
2011,07,09,04,59,1.00
2011,07,09,05,00,1.50
2011,07,09,05,01,2.10
2011,07,09,05,02,1.20
2011,07,09,05,03,0.40
2011,07,09,05,04,0.60
2011,07,09,05,05,1.20
2011,07,09,05,06,1.50
2011,07,09,05,07,1.80
2011,07,09,05,08,2.00
2011,07,09,05,09,2.10
2011,07,09,05,10,0.80
2011,07,09,05,11,1.80
2011,07,09,05,12,2.10
2011,07,09,05,13,2.10
2011,07,09,05,14,2.20
2011,07,09,05,15,3.10
2011,07,09,05,16,3.20
2011,07,09,05,17,2.70
2011,07,09,05,18,2.30
2011,07,09,05,19,2.10
2011,07,09,05,20,2.20
2011,07,09,05,21,1.90
2011,07,09,05,22,1.00
2011,07,09,05,23,0.40
2011,07,09,05,24,0.80
2011,07,09,05,25,1.60
2011,07,09,05,26,2.30
2011,07,09,05,27,2.10
2011,07,09,05,28,1.90
2011,07,09,05,29,0.90
2011,07,09,05,30,0.40
2011,07,09,05,31,0.20
2011,07,09,05,32,0.70
2011,07,09,05,33,0.40
2011,07,09,05,34,1.00
2011,07,09,05,35,1.70
2011,07,09,05,36,1.80
2011,07,09,05,37,2.10
2011,07,09,05,38,1.80
2011,07,09,05,39,2.10
2011,07,09,05,40,1.70
2011,07,09,05,41,1.50
2011,07,09,05,42,1.40
2011,07,09,05,43,0.60
2011,07,09,05,44,0.50
2011,07,09,05,45,0.90
2011,07,09,05,46,2.00
2011,07,09,05,47,2.30
2011,07,09,05,48,2.10
2011,07,09,05,49,1.50
2011,07,09,05,50,0.50
2011,07,09,05,51,0.10
2011,07,09,05,52,0.00
2011,07,09,05,53,0.00
2011,07,09,05,54,0.10
2011,07,09,05,55,0.00
2011,07,09,05,56,0.00
2011,07,09,05,57,0.00
2011,07,09,05,58,0.00
2011,07,09,05,59,0.00
2011,07,09,06,00,0.00
2011,07,09,06,01,0.00
2011,07,09,06,02,0.00
2011,07,09,06,03,0.00
2011,07,09,06,04,0.00
2011,07,09,06,05,0.00
2011,07,09,06,06,0.00
2011,07,09,06,07,0.00
2011,07,09,06,08,0.00
2011,07,09,06,09,0.00
2011,07,09,06,10,0.00
2011,07,09,06,11,0.00
2011,07,09,06,12,0.00
2011,07,09,06,13,0.00
2011,07,09,06,14,0.00
2011,07,09,06,15,0.00
2011,07,09,06,16,0.00
2011,07,09,06,17,0.10
2011,07,09,06,18,1.50
2011,07,09,06,19,1.90
2011,07,09,06,20,1.70
2011,07,09,06,21,1.20
2011,07,09,06,22,0.10
2011,07,09,06,23,0.00
2011,07,09,06,24,0.20
2011,07,09,06,25,2.00
2011,07,09,06,26,1.30
2011,07,09,06,27,0.30
2011,07,09,06,28,0.00
2011,07,09,06,29,0.00
2011,07,09,06,30,0.10
2011,07,09,06,31,0.00
2011,07,09,06,32,0.30
2011,07,09,06,33,0.20
2011,07,09,06,34,0.40
2011,07,09,06,35,0.00
2011,07,09,06,36,0.70
2011,07,09,06,37,0.70
2011,07,09,06,38,0.20
2011,07,09,06,39,0.00
2011,07,09,06,40,0.00
2011,07,09,06,41,0.00
2011,07,09,06,42,0.00
2011,07,09,06,43,0.00
2011,07,09,06,44,0.00
2011,07,09,06,45,0.00
2011,07,09,06,46,0.00
2011,07,09,06,47,0.00
2011,07,09,06,48,0.00
2011,07,09,06,49,0.00
2011,07,09,06,50,0.00
2011,07,09,06,51,0.00
2011,07,09,06,52,0.00
2011,07,09,06,53,0.00
2011,07,09,06,54,0.00
2011,07,09,06,55,0.00
2011,07,09,06,56,0.00
2011,07,09,06,57,0.00
2011,07,09,06,58,0.00
2011,07,09,06,59,0.00
2011,07,09,07,00,0.00
2011,07,09,07,01,0.00
2011,07,09,07,02,0.00
2011,07,09,07,03,0.00
2011,07,09,07,04,0.00
2011,07,09,07,05,0.00
2011,07,09,07,06,0.00
2011,07,09,07,07,0.10
2011,07,09,07,08,0.10
2011,07,09,07,09,0.50
2011,07,09,07,10,0.50
2011,07,09,07,11,0.20
2011,07,09,07,12,0.00
2011,07,09,07,13,0.30
2011,07,09,07,14,0.50
2011,07,09,07,15,0.40
2011,07,09,07,16,0.20
2011,07,09,07,17,0.00
2011,07,09,07,18,0.00
2011,07,09,07,19,0.00
2011,07,09,07,20,0.00
2011,07,09,07,21,0.00
2011,07,09,07,22,0.00
2011,07,09,07,23,0.00
2011,07,09,07,24,0.00
2011,07,09,07,25,0.00
2011,07,09,07,26,0.00
2011,07,09,07,27,0.00
2011,07,09,07,28,0.00
2011,07,09,07,29,0.00
2011,07,09,07,30,0.00
2011,07,09,07,31,0.10
2011,07,09,07,32,0.00
2011,07,09,07,33,0.00
2011,07,09,07,34,0.00
2011,07,09,07,35,0.00
2011,07,09,07,36,0.00
2011,07,09,07,37,0.00
2011,07,09,07,38,0.60
2011,07,09,07,39,0.10
2011,07,09,07,40,0.20
2011,07,09,07,41,0.20
2011,07,09,07,42,0.20
2011,07,09,07,43,0.20
2011,07,09,07,44,0.20
2011,07,09,07,45,0.00
2011,07,09,07,46,0.10
2011,07,09,07,47,0.00
2011,07,09,07,48,0.00
2011,07,09,07,49,0.60
2011,07,09,07,50,0.10
2011,07,09,07,51,0.00
2011,07,09,07,52,0.00
2011,07,09,07,53,0.20
2011,07,09,07,54,0.30
2011,07,09,07,55,0.70
2011,07,09,07,56,0.60
2011,07,09,07,57,0.20
2011,07,09,07,58,0.20
2011,07,09,07,59,0.10
2011,07,09,08,00,0.00
2011,07,09,08,01,0.90
2011,07,09,08,02,0.70
2011,07,09,08,03,0.80
2011,07,09,08,04,0.20
2011,07,09,08,05,0.00
2011,07,09,08,06,0.50
2011,07,09,08,07,0.00
2011,07,09,08,08,0.00
2011,07,09,08,09,1.40
2011,07,09,08,10,0.20
2011,07,09,08,11,1.10
2011,07,09,08,12,1.40
2011,07,09,08,13,1.20
2011,07,09,08,14,0.00
2011,07,09,08,15,0.10
2011,07,09,08,16,1.00
2011,07,09,08,17,2.00
2011,07,09,08,18,1.80
2011,07,09,08,19,1.00
2011,07,09,08,20,0.50
2011,07,09,08,21,2.10
2011,07,09,08,22,0.50
2011,07,09,08,23,0.20
2011,07,09,08,24,0.80
2011,07,09,08,25,1.80
2011,07,09,08,26,1.10
2011,07,09,08,27,0.20
2011,07,09,08,28,0.00
2011,07,09,08,29,0.60
2011,07,09,08,30,1.20
2011,07,09,08,31,1.10
2011,07,09,08,32,0.70
2011,07,09,08,33,0.50
2011,07,09,08,34,1.00
2011,07,09,08,35,1.80
2011,07,09,08,36,1.20
2011,07,09,08,37,1.70
2011,07,09,08,38,1.20
2011,07,09,08,39,3.20
2011,07,09,08,40,4.20
2011,07,09,08,41,3.50
2011,07,09,08,42,2.80
2011,07,09,08,43,1.20
2011,07,09,08,44,3.10
2011,07,09,08,45,3.40
2011,07,09,08,46,0.50
2011,07,09,08,47,3.80
2011,07,09,08,48,1.30
2011,07,09,08,49,2.00
2011,07,09,08,50,5.50
2011,07,09,08,51,5.20
2011,07,09,08,52,2.60
2011,07,09,08,53,2.00
2011,07,09,08,54,1.80
2011,07,09,08,55,0.00
2011,07,09,08,56,0.10
2011,07,09,08,57,0.60
2011,07,09,08,58,1.80
2011,07,09,08,59,0.10
2011,07,09,09,00,0.10
2011,07,09,09,01,1.00
2011,07,09,09,02,2.50
2011,07,09,09,03,4.10
2011,07,09,09,04,3.10
2011,07,09,09,05,1.20
2011,07,09,09,06,2.20
2011,07,09,09,07,2.00
2011,07,09,09,08,1.20
2011,07,09,09,09,1.10
2011,07,09,09,10,2.30
2011,07,09,09,11,1.50
2011,07,09,09,12,1.80
2011,07,09,09,13,0.80
2011,07,09,09,14,4.70
2011,07,09,09,15,5.70
2011,07,09,09,16,4.40
2011,07,09,09,17,1.50
2011,07,09,09,18,1.10
2011,07,09,09,19,3.10
2011,07,09,09,20,2.40
2011,07,09,09,21,3.00
2011,07,09,09,22,1.80
2011,07,09,09,23,1.80
2011,07,09,09,24,2.50
2011,07,09,09,25,2.50
2011,07,09,09,26,0.00
2011,07,09,09,27,0.10
2011,07,09,09,28,2.70
2011,07,09,09,29,3.10
2011,07,09,09,30,3.60
2011,07,09,09,31,3.20
2011,07,09,09,32,3.20
2011,07,09,09,33,2.50
2011,07,09,09,34,4.30
2011,07,09,09,35,2.10
2011,07,09,09,36,1.40
2011,07,09,09,37,3.10
2011,07,09,09,38,2.10
2011,07,09,09,39,0.80
2011,07,09,09,40,2.70
2011,07,09,09,41,3.40
2011,07,09,09,42,1.70
2011,07,09,09,43,1.20
2011,07,09,09,44,0.30
2011,07,09,09,45,1.90
2011,07,09,09,46,0.90
2011,07,09,09,47,3.50
2011,07,09,09,48,3.80
2011,07,09,09,49,4.90
2011,07,09,09,50,2.90
2011,07,09,09,51,2.50
2011,07,09,09,52,1.40
2011,07,09,09,53,2.70
2011,07,09,09,54,1.30
2011,07,09,09,55,1.70
2011,07,09,09,56,3.70
2011,07,09,09,57,4.70
2011,07,09,09,58,1.90
2011,07,09,09,59,5.40
2011,07,09,10,00,4.50
2011,07,09,10,01,2.10
2011,07,09,10,02,1.40
2011,07,09,10,03,3.10
2011,07,09,10,04,0.30
2011,07,09,10,05,1.80
2011,07,09,10,06,4.40
2011,07,09,10,07,6.00
2011,07,09,10,08,5.70
2011,07,09,10,09,4.00
2011,07,09,10,10,3.70
2011,07,09,10,11,0.70
2011,07,09,10,12,2.40
2011,07,09,10,13,0.30
2011,07,09,10,14,1.80
2011,07,09,10,15,4.80
2011,07,09,10,16,3.10
2011,07,09,10,17,2.90
2011,07,09,10,18,0.70
2011,07,09,10,19,0.50
2011,07,09,10,20,0.50
2011,07,09,10,21,1.20
2011,07,09,10,22,1.00
2011,07,09,10,23,2.50
2011,07,09,10,24,4.00
2011,07,09,10,25,4.00
2011,07,09,10,26,4.50
2011,07,09,10,27,4.50
2011,07,09,10,28,2.80
2011,07,09,10,29,4.40
2011,07,09,10,30,6.90
2011,07,09,10,31,4.40
2011,07,09,10,32,2.30
2011,07,09,10,33,0.80
2011,07,09,10,34,4.00
2011,07,09,10,35,4.10
2011,07,09,10,36,4.10
2011,07,09,10,37,3.20
2011,07,09,10,38,3.00
2011,07,09,10,39,4.10
2011,07,09,10,40,2.50
2011,07,09,10,41,4.80
2011,07,09,10,42,2.60
2011,07,09,10,43,3.80
2011,07,09,10,44,1.40
2011,07,09,10,45,0.20
2011,07,09,10,46,0.90
2011,07,09,10,47,1.20
2011,07,09,10,48,1.20
2011,07,09,10,49,2.80
2011,07,09,10,50,5.60
2011,07,09,10,51,4.20
2011,07,09,10,52,3.70
2011,07,09,10,53,4.00
2011,07,09,10,54,3.90
2011,07,09,10,55,4.30
2011,07,09,10,56,2.60
2011,07,09,10,57,4.40
2011,07,09,10,58,6.10
2011,07,09,10,59,8.10
2011,07,09,11,00,3.90
2011,07,09,11,01,3.20
2011,07,09,11,02,5.10
2011,07,09,11,03,4.40
2011,07,09,11,04,5.70
2011,07,09,11,05,5.10
2011,07,09,11,06,4.50
2011,07,09,11,07,2.50
2011,07,09,11,08,5.40
2011,07,09,11,09,7.20
2011,07,09,11,10,6.20
2011,07,09,11,11,3.20
2011,07,09,11,12,3.10
2011,07,09,11,13,5.10
2011,07,09,11,14,4.60
2011,07,09,11,15,2.40
2011,07,09,11,16,1.50
2011,07,09,11,17,0.90
2011,07,09,11,18,2.00
2011,07,09,11,19,1.30
2011,07,09,11,20,6.10
2011,07,09,11,21,3.80
2011,07,09,11,22,3.60
2011,07,09,11,23,3.00
2011,07,09,11,24,3.40
2011,07,09,11,25,4.20
2011,07,09,11,26,6.00
2011,07,09,11,27,3.60
2011,07,09,11,28,4.30
2011,07,09,11,29,4.10
2011,07,09,11,30,4.20
2011,07,09,11,31,1.30
2011,07,09,11,32,4.10
2011,07,09,11,33,6.50
2011,07,09,11,34,2.80
2011,07,09,11,35,2.80
2011,07,09,11,36,4.70
2011,07,09,11,37,7.10
2011,07,09,11,38,8.10
2011,07,09,11,39,8.30
2011,07,09,11,40,8.30
2011,07,09,11,41,3.00
2011,07,09,11,42,3.00
2011,07,09,11,43,7.80
2011,07,09,11,44,5.30
2011,07,09,11,45,0.60
2011,07,09,11,46,1.50
2011,07,09,11,47,0.50
2011,07,09,11,48,5.30
2011,07,09,11,49,6.40
2011,07,09,11,50,6.10
2011,07,09,11,51,5.70
2011,07,09,11,52,5.00
2011,07,09,11,53,8.40
2011,07,09,11,54,5.80
2011,07,09,11,55,2.60
2011,07,09,11,56,1.70
2011,07,09,11,57,2.30
2011,07,09,11,58,5.20
2011,07,09,11,59,2.60
2011,07,09,12,00,3.70
2011,07,09,12,01,3.40
2011,07,09,12,02,4.10
2011,07,09,12,03,5.90
2011,07,09,12,04,2.40
2011,07,09,12,05,3.10
2011,07,09,12,06,7.90
2011,07,09,12,07,4.60
2011,07,09,12,08,4.80
2011,07,09,12,09,4.90
2011,07,09,12,10,5.20
2011,07,09,12,11,4.90
2011,07,09,12,12,5.70
2011,07,09,12,13,7.20
2011,07,09,12,14,2.20
2011,07,09,12,15,5.30
2011,07,09,12,16,2.60
2011,07,09,12,17,5.10
2011,07,09,12,18,6.60
2011,07,09,12,19,5.50
2011,07,09,12,20,1.60
2011,07,09,12,21,6.10
2011,07,09,12,22,4.00
2011,07,09,12,23,1.30
2011,07,09,12,24,2.20
2011,07,09,12,25,5.70
2011,07,09,12,26,6.40
2011,07,09,12,27,4.50
2011,07,09,12,28,4.40
2011,07,09,12,29,5.50
2011,07,09,12,30,6.00
2011,07,09,12,31,8.40
2011,07,09,12,32,8.50
2011,07,09,12,33,8.10
2011,07,09,12,34,5.50
2011,07,09,12,35,6.20
2011,07,09,12,36,9.00
2011,07,09,12,37,3.90
2011,07,09,12,38,3.60
2011,07,09,12,39,2.70
2011,07,09,12,40,4.60
2011,07,09,12,41,10.20
2011,07,09,12,42,6.40
2011,07,09,12,43,2.80
2011,07,09,12,44,6.40
2011,07,09,12,45,7.10
2011,07,09,12,46,5.60
2011,07,09,12,47,6.10
2011,07,09,12,48,5.10
2011,07,09,12,49,5.30
2011,07,09,12,50,7.10
2011,07,09,12,51,7.70
2011,07,09,12,52,5.90
2011,07,09,12,53,8.10
2011,07,09,12,54,5.50
2011,07,09,12,55,8.80
2011,07,09,12,56,7.80
2011,07,09,12,57,8.10
2011,07,09,12,58,6.80
2011,07,09,12,59,6.90
2011,07,09,13,00,7.00
2011,07,09,13,01,7.20
2011,07,09,13,02,7.80
2011,07,09,13,03,7.70
2011,07,09,13,04,7.90
2011,07,09,13,05,4.80
2011,07,09,13,06,8.10
2011,07,09,13,07,8.60
2011,07,09,13,08,5.60
2011,07,09,13,09,2.60
2011,07,09,13,10,2.50
2011,07,09,13,11,7.10
2011,07,09,13,12,6.30
2011,07,09,13,13,8.40
2011,07,09,13,14,5.30
2011,07,09,13,15,2.70
2011,07,09,13,16,5.00
2011,07,09,13,17,7.80
2011,07,09,13,18,5.10
2011,07,09,13,19,3.60
2011,07,09,13,20,9.00
2011,07,09,13,21,7.40
2011,07,09,13,22,4.80
2011,07,09,13,23,4.80
2011,07,09,13,24,4.20
2011,07,09,13,25,5.10
2011,07,09,13,26,12.20
2011,07,09,13,27,8.60
2011,07,09,13,28,9.20
2011,07,09,13,29,8.40
2011,07,09,13,30,4.30
2011,07,09,13,31,3.60
2011,07,09,13,32,3.40
2011,07,09,13,33,2.60
2011,07,09,13,34,4.60
2011,07,09,13,35,0.50
2011,07,09,13,36,2.80
2011,07,09,13,37,3.10
2011,07,09,13,38,4.20
2011,07,09,13,39,7.70
2011,07,09,13,40,4.10
2011,07,09,13,41,2.30
2011,07,09,13,42,2.10
2011,07,09,13,43,2.70
2011,07,09,13,44,1.10
2011,07,09,13,45,7.00
2011,07,09,13,46,4.40
2011,07,09,13,47,4.40
2011,07,09,13,48,4.50
2011,07,09,13,49,6.70
2011,07,09,13,50,5.20
2011,07,09,13,51,7.10
2011,07,09,13,52,6.60
2011,07,09,13,53,6.50
2011,07,09,13,54,8.30
2011,07,09,13,55,8.40
2011,07,09,13,56,7.80
2011,07,09,13,57,4.20
2011,07,09,13,58,7.90
2011,07,09,13,59,5.90
2011,07,09,14,00,7.60
2011,07,09,14,01,8.30
2011,07,09,14,02,9.30
2011,07,09,14,03,8.90
2011,07,09,14,04,11.30
2011,07,09,14,05,6.70
2011,07,09,14,06,1.30
2011,07,09,14,07,3.90
2011,07,09,14,08,7.40
2011,07,09,14,09,11.30
2011,07,09,14,10,8.40
2011,07,09,14,11,4.90
2011,07,09,14,12,4.90
2011,07,09,14,13,6.90
2011,07,09,14,14,5.40
2011,07,09,14,15,3.10
2011,07,09,14,16,8.70
2011,07,09,14,17,9.40
2011,07,09,14,18,7.40
2011,07,09,14,19,10.00
2011,07,09,14,20,4.90
2011,07,09,14,21,9.60
2011,07,09,14,22,10.20
2011,07,09,14,23,13.10
2011,07,09,14,24,9.30
2011,07,09,14,25,8.10
2011,07,09,14,26,7.50
2011,07,09,14,27,3.90
2011,07,09,14,28,7.00
2011,07,09,14,29,8.70
2011,07,09,14,30,10.40
2011,07,09,14,31,6.90
2011,07,09,14,32,4.80
2011,07,09,14,33,7.80
2011,07,09,14,34,9.70
2011,07,09,14,35,10.70
2011,07,09,14,36,9.50
2011,07,09,14,37,9.00
2011,07,09,14,38,8.30
2011,07,09,14,39,7.40
2011,07,09,14,40,9.90
2011,07,09,14,41,8.10
2011,07,09,14,42,7.40
2011,07,09,14,43,6.20
2011,07,09,14,44,6.30
2011,07,09,14,45,10.50
2011,07,09,14,46,2.40
2011,07,09,14,47,0.70
2011,07,09,14,48,2.10
2011,07,09,14,49,6.10
2011,07,09,14,50,10.30
2011,07,09,14,51,5.70
2011,07,09,14,52,6.40
2011,07,09,14,53,7.70
2011,07,09,14,54,5.70
2011,07,09,14,55,10.90
2011,07,09,14,56,8.60
2011,07,09,14,57,10.10
2011,07,09,14,58,5.90
2011,07,09,14,59,11.00
2011,07,09,15,00,10.90
2011,07,09,15,01,8.60
2011,07,09,15,02,5.40
2011,07,09,15,03,5.00
2011,07,09,15,04,12.70
2011,07,09,15,05,9.80
2011,07,09,15,06,10.00
2011,07,09,15,07,10.40
2011,07,09,15,08,10.40
2011,07,09,15,09,9.70
2011,07,09,15,10,10.80
2011,07,09,15,11,11.00
2011,07,09,15,12,9.10
2011,07,09,15,13,10.30
2011,07,09,15,14,13.40
2011,07,09,15,15,6.10
2011,07,09,15,16,7.70
2011,07,09,15,17,7.00
2011,07,09,15,18,7.10
2011,07,09,15,19,5.20
2011,07,09,15,20,10.20
2011,07,09,15,21,12.30
2011,07,09,15,22,14.00
2011,07,09,15,23,9.20
2011,07,09,15,24,10.60
2011,07,09,15,25,7.90
2011,07,09,15,26,7.70
2011,07,09,15,27,2.50
2011,07,09,15,28,5.40
2011,07,09,15,29,8.30
2011,07,09,15,30,13.60
2011,07,09,15,31,12.30
2011,07,09,15,32,13.10
2011,07,09,15,33,16.40
2011,07,09,15,34,9.40
2011,07,09,15,35,8.70
2011,07,09,15,36,17.00
2011,07,09,15,37,14.00
2011,07,09,15,38,16.90
2011,07,09,15,39,16.80
2011,07,09,15,40,12.50
2011,07,09,15,41,14.10
2011,07,09,15,42,10.30
2011,07,09,15,43,7.80
2011,07,09,15,44,7.40
2011,07,09,15,45,11.70
2011,07,09,15,46,14.20
2011,07,09,15,47,11.70
2011,07,09,15,48,15.20
2011,07,09,15,49,9.90
2011,07,09,15,50,12.40
2011,07,09,15,51,13.30
2011,07,09,15,52,15.00
2011,07,09,15,53,16.30
2011,07,09,15,54,13.70
2011,07,09,15,55,10.10
2011,07,09,15,56,4.10
2011,07,09,15,57,8.60
2011,07,09,15,58,12.80
2011,07,09,15,59,13.10
2011,07,09,16,00,12.60
2011,07,09,16,01,13.10
2011,07,09,16,02,13.70
2011,07,09,16,03,11.10
2011,07,09,16,04,9.10
2011,07,09,16,05,9.10
2011,07,09,16,06,10.20
2011,07,09,16,07,11.40
2011,07,09,16,08,16.80
2011,07,09,16,09,12.20
2011,07,09,16,10,10.50
2011,07,09,16,11,9.50
2011,07,09,16,12,15.90
2011,07,09,16,13,14.60
2011,07,09,16,14,12.00
2011,07,09,16,15,11.70
2011,07,09,16,16,14.40
2011,07,09,16,17,11.90
2011,07,09,16,18,9.30
2011,07,09,16,19,10.80
2011,07,09,16,20,13.90
2011,07,09,16,21,12.40
2011,07,09,16,22,15.30
2011,07,09,16,23,12.10
2011,07,09,16,24,13.20
2011,07,09,16,25,11.00
2011,07,09,16,26,8.10
2011,07,09,16,27,13.30
2011,07,09,16,28,7.70
2011,07,09,16,29,12.60
2011,07,09,16,30,18.40
2011,07,09,16,31,11.90
2011,07,09,16,32,9.40
2011,07,09,16,33,11.90
2011,07,09,16,34,14.90
2011,07,09,16,35,12.40
2011,07,09,16,36,12.20
2011,07,09,16,37,15.30
2011,07,09,16,38,16.00
2011,07,09,16,39,10.40
2011,07,09,16,40,9.90
2011,07,09,16,41,10.90
2011,07,09,16,42,9.90
2011,07,09,16,43,10.60
2011,07,09,16,44,16.20
2011,07,09,16,45,12.60
2011,07,09,16,46,10.60
2011,07,09,16,47,8.40
2011,07,09,16,48,10.70
2011,07,09,16,49,10.50
2011,07,09,16,50,12.80
2011,07,09,16,51,6.40
2011,07,09,16,52,9.20
2011,07,09,16,53,9.30
2011,07,09,16,54,12.40
2011,07,09,16,55,9.40
2011,07,09,16,56,9.70
2011,07,09,16,57,9.40
2011,07,09,16,58,4.70
2011,07,09,16,59,10.00
2011,07,09,17,00,15.90
2011,07,09,17,01,9.20
2011,07,09,17,02,12.50
2011,07,09,17,03,15.80
2011,07,09,17,04,11.00
2011,07,09,17,05,9.80
2011,07,09,17,06,7.50
2011,07,09,17,07,6.40
2011,07,09,17,08,13.60
2011,07,09,17,09,12.70
2011,07,09,17,10,13.30
2011,07,09,17,11,14.90
2011,07,09,17,12,12.20
2011,07,09,17,13,12.20
2011,07,09,17,14,9.00
2011,07,09,17,15,8.00
2011,07,09,17,16,11.30
2011,07,09,17,17,10.00
2011,07,09,17,18,7.50
2011,07,09,17,19,12.00
2011,07,09,17,20,12.90
2011,07,09,17,21,12.80
2011,07,09,17,22,8.10
2011,07,09,17,23,12.40
2011,07,09,17,24,9.50
2011,07,09,17,25,11.20
2011,07,09,17,26,11.50
2011,07,09,17,27,11.20
2011,07,09,17,28,8.70
2011,07,09,17,29,7.70
2011,07,09,17,30,12.00
2011,07,09,17,31,13.50
2011,07,09,17,32,11.80
2011,07,09,17,33,10.40
2011,07,09,17,34,7.20
2011,07,09,17,35,7.80
2011,07,09,17,36,11.70
2011,07,09,17,37,10.80
2011,07,09,17,38,13.60
2011,07,09,17,39,10.80
2011,07,09,17,40,12.20
2011,07,09,17,41,11.90
2011,07,09,17,42,11.40
2011,07,09,17,43,8.40
2011,07,09,17,44,12.40
2011,07,09,17,45,12.40
2011,07,09,17,46,13.10
2011,07,09,17,47,12.40
2011,07,09,17,48,10.00
2011,07,09,17,49,12.00
2011,07,09,17,50,12.30
2011,07,09,17,51,9.70
2011,07,09,17,52,11.60
2011,07,09,17,53,8.60
2011,07,09,17,54,10.60
2011,07,09,17,55,14.30
2011,07,09,17,56,10.50
2011,07,09,17,57,10.30
2011,07,09,17,58,6.70
2011,07,09,17,59,12.30
2011,07,09,18,00,11.40
2011,07,09,18,01,12.40
2011,07,09,18,02,9.20